STARLINK-35404, 66336

Orbit data source: Space-Track

STARLINK-35404, 66336 is a payload satellite owned by SpaceX/Seattle (US) in LEO that was launched on Thu, 06 Nov 2025 UTC via an FALCON 9 launch vehicle from the Air Force Eastern Test Range (AFETR). Payload-class satellites include a variety of spacecraft equipped with specific instruments for various scientific and technological missions. These include communications satellites like Starlink; space stations such as the ISS; scientific satellites like the Hubble; Earth observation satellites from companies like Planet Labs, Umbra, and HawkEye 360; GPS; miniature CubeSats for education and research; and military/defense satellites.

Loading next visibility...
Identifier
66336, 2025-253T
Orbit
LEO
Country
Flag of USUS
Related business
Manufacturer
SpaceX/Seattle
Mission
Operational Commercial Communications
Bus & Motor
STARLINK V2MO, Unknown motor
Mass
575 kg wet, ~530 kg dry
Launch date (UTC)
2025-11-06 (7 months ago)
Launch vehicle
FALCON 9
Launch site
Air Force Eastern Test Range (AFETR)
Object type
Payload
Rocket body
Debris
Shape & HBR
Box + 2 Pan, 17.7 m
Radar Cross Section
36.964 m², Large (>1 m²)

Expand to show TLE details & history
Last TLE update: 15 hours ago

TLE from 15 hours ago
0 STARLINK-35404
1 66336U 25253T   26170.55003082  .00021540  00000-0  78971-3 0  9997
2 66336  43.0012 357.1696 0001107 266.8280  93.2445 15.27591677 35829
Epoch: 2026-06-19T13:12Z
TLE epoch observation values (Epoch: 2026-06-19T13:12:02.662Z)
Latitude
-0.00003°
Longitude
-108.61893°
Altitude
482.833 km
Speed
7.626 km/s
True Right ascension
23h 48m 40s
True Declination
0° 00' 00"
Sunlit
Object was in daylight at epoch
Visualization orbit readout
Latitude
Unknown
Longitude
Unknown
Altitude
Unknown
Speed
Unknown
Apparent Right ascension
Unknown
Apparent Declination
Unknown
Sunlit
N/A
Visualization observer readout
Local Sidereal Time
14:37:08
Azimuth
Unknown
Elevation
Unknown
Doppler factor
Unknown
Orbital elements
Apogee altitude
485.719 km
Perigee altitude
484.199 km
Semi-major axis
6,863.096 km
Eccentricity
0.00011
Inclination
43.0012°
RAAN
357.1696°
Arg. of periapsis
266.828°
True anomaly
93.25716°
Mean anomaly
93.2445°
Eccentric anomaly
93.25083°
Mean motion
3.81736 °/min
Orbital period
94.31 mins
BSTAR
0.00078971
Loading maneuver chart data...
Computing Atmospheric mass density...
Loading historical data...
Loading historical data...
Loading historical data...
Loading historical data...
Loading historical data...
Loading historical data...
Loading historical data...

Documentation

Showing up to 5 results
|